Simultaneous Nadir Overpasses (SNOs) Predictions

Prediction of SNOs between TERRA and METOP-C Satellite Orbit:

Table of predicted SNOs for the next 14.0 days since TLE Epoch: 10/16/2021
Index Date (TERRA) Time (TERRA) Lat,Lon (TERRA) SZA (TERRA ) Date (METOP-C) Time (METOP-C) Lat,Lon (METOP-C) SZA (METOP-C ) Distance(km) Time Diff (sec)
1 10/16/2021 21:57:00 81.22,-105.33 93.22 10/16/2021 21:56:57 81.22,-105.30 93.22 0.72 3
2 10/16/2021 22:46:26 -81.24, 62.59 86.73 10/16/2021 22:47:37 -81.24, 62.76 86.68 3.02 71
3 10/19/2021 16:41:45 -81.22, 153.43 85.78 10/19/2021 16:40:42 -81.22, 153.53 85.79 1.69 63
4 10/19/2021 17:31:11 81.22, -38.87 94.25 10/19/2021 17:31:21 81.22, -38.90 94.25 0.61 10
5 10/22/2021 12:15:56 -81.22,-140.13 84.77 10/22/2021 12:15:06 -81.22,-140.05 84.79 1.30 50
6 10/22/2021 13:05:22 81.22, 27.54 95.25 10/22/2021 13:05:45 81.22, 27.48 95.26 1.15 23
7 10/25/2021 07:50:07 -81.21, -73.74 83.80 10/25/2021 07:49:30 -81.22, -73.66 83.80 1.37 37
8 10/25/2021 08:39:31 81.24, 94.28 96.28 10/25/2021 08:40:07 81.23, 94.23 96.28 1.07 36
9 10/28/2021 03:24:17 -81.21, -7.40 82.86 10/28/2021 03:23:53 -81.22, -7.30 82.85 2.00 24



Historial Predications of SNOs between TERRA and METOP-C
